Weather History for Whiting Fld NAS, FL

Change the Weather History Date:

Saturday, May 3, 2014

  Actual Average Record
Temperature  
Mean Temperature 67 °F -  
Max Temperature 80 °F 79 °F 90 °F (2011)
Min Temperature 55 °F 60 °F 51 °F (1999)
Cooling Degree Days 2    
Growing Degree Days 17 (Base 50)    
Moisture  
Dew Point 48 °F    
Average Humidity 54    
Maximum Humidity 87    
Minimum Humidity 27    
Precipitation  
Precipitation 0.00 in - - ()
Sea Level Pressure  
Sea Level Pressure 30.00 in    
Wind  
Wind Speed 5 mph (NW)    
Max Wind Speed 9 mph    
Max Gust Speed 17 mph    
Visibility 10 miles    
Events      
Averages and records for this station are not official NWS values.
T = Trace of Precipitation, MM = Missing Value Source: NWS Daily Summary

Daily Weather History Graph

Daily Weather History Graph

Search for Another Location

Airport:

Trip Planner

Search our weather history database for the weather conditions in past years. The results will help you decide how hot, cold, wet, or windy it might be!

Date:

Astronomy

May. 03, 2014 Rise Set
Actual Time 6:02 AM CDT 7:27 PM CDT
Civil Twilight 5:36 AM CDT 7:53 PM CDT
Nautical Twilight 5:06 AM CDT 8:24 PM CDT
Astronomical Twilight 4:34 AM CDT 8:56 PM CDT
Moon 9:35 AM CDT (5/3) 11:31 PM CDT (5/3)
Length of Visible Light 14h 17m
Length of Day
13h 25m
Waxing Crescent, 20% of the Moon is Illuminated
May 3
Waxing Crescent
May 6
First Quarter
May 14
Full
May 21
Last Quarter
May 28
New

Hourly Weather History & Observations

Time (CDT) Temp. Dew Point Humidity Pressure Visibility Wind Dir Wind Speed Gust Speed Precip Events Conditions
12:56 AM 60.1 °F 54.0 °F 80% 29.95 in 10.0 mi NW 3.5 mph - N/A   Scattered Clouds
1:56 AM 59.0 °F 53.1 °F 81% 29.95 in 10.0 mi WNW 4.6 mph - N/A   Mostly Cloudy
2:56 AM 60.1 °F 53.1 °F 78% 29.96 in 10.0 mi NW 4.6 mph - N/A   Overcast
3:56 AM 60.1 °F 51.1 °F 72% 29.96 in 10.0 mi Calm Calm - N/A   Partly Cloudy
4:56 AM 55.9 °F 52.0 °F 87% 29.96 in 10.0 mi NW 4.6 mph - N/A   Clear
5:56 AM 55.0 °F 48.9 °F 80% 29.97 in 10.0 mi NW 3.5 mph - N/A   Clear
6:56 AM 59.0 °F 50.0 °F 72% 29.99 in 10.0 mi NNW 3.5 mph - N/A   Partly Cloudy
7:56 AM 64.0 °F 48.9 °F 58% 30.02 in 10.0 mi NNW 4.6 mph - N/A   Partly Cloudy
8:56 AM 68.0 °F 50.0 °F 52% 30.03 in 10.0 mi North 5.8 mph - N/A   Partly Cloudy
9:56 AM 72.0 °F 46.9 °F 41% 30.04 in 10.0 mi Variable 6.9 mph - N/A   Partly Cloudy
10:56 AM 75.0 °F 44.1 °F 33% 30.04 in 10.0 mi North 8.1 mph - N/A   Partly Cloudy
11:56 AM 75.9 °F 42.1 °F 30% 30.04 in 10.0 mi NW 9.2 mph 17.3 mph N/A   Partly Cloudy
12:56 PM 78.1 °F 42.1 °F 28% 30.02 in 10.0 mi NNW 4.6 mph - N/A   Scattered Clouds
1:56 PM 77.0 °F 43.0 °F 30% 30.01 in 10.0 mi NNW 8.1 mph - N/A   Scattered Clouds
2:56 PM 78.1 °F 41.0 °F 27% 29.99 in 10.0 mi Variable 5.8 mph - N/A   Scattered Clouds
3:56 PM 78.1 °F 42.1 °F 28% 29.98 in 10.0 mi West 8.1 mph - N/A   Scattered Clouds
4:56 PM 79.0 °F 43.0 °F 28% 29.98 in 10.0 mi NNW 8.1 mph - N/A   Clear
5:56 PM 77.0 °F 43.0 °F 30% 29.98 in 10.0 mi WNW 9.2 mph - N/A   Clear
6:56 PM 73.0 °F 46.0 °F 38% 29.99 in 10.0 mi NW 6.9 mph - N/A   Clear
7:56 PM 66.0 °F 50.0 °F 56% 30.01 in 10.0 mi Calm Calm - N/A   Clear
8:56 PM 66.0 °F 50.0 °F 56% 30.03 in 10.0 mi West 8.1 mph - N/A   Clear
9:56 PM 62.1 °F 50.0 °F 65% 30.05 in 10.0 mi West 5.8 mph - N/A   Clear
10:56 PM 61.0 °F 51.1 °F 70% 30.06 in 10.0 mi West 5.8 mph - N/A   Clear
11:56 PM 63.0 °F 54.0 °F 72% 30.06 in 10.0 mi West 6.9 mph - N/A   Clear